RYR016 LIEA-LIPE

Flight info

Callsign RYR016
Flight time N/A
Altitude 30000
Route GOPAT L978 BEBEV DCT OKBON DCT RAPUR DCT TORTU DCT ERTEV DCT KALMO Y239 NIGSO
Aircraft B738/M-SDE2E3FGHIRWXY/LB1

Departure

Time N/A
Airport Alghero-Fertilia Airport (LIEA)

Arrival

Time 2026-05-01 07:58
Airport Bologna Guglielmo Marconi Airport (LIPE)
Time Latitude Longitude Altitude Speed Heading
2026-05-01 07:23 42.88487 8.67238 30270 ft 429 kts 20°
2026-05-01 07:23 42.93994 8.70584 30296 ft 443 kts 22°
2026-05-01 07:24 42.96798 8.72368 30322 ft 445 kts 23°
2026-05-01 07:24 43.02340 8.75907 30292 ft 435 kts 22°
2026-05-01 07:25 43.07839 8.79389 30302 ft 436 kts 22°
2026-05-01 07:25 43.13357 8.82866 30302 ft 437 kts 22°
2026-05-01 07:26 43.18880 8.86348 30307 ft 437 kts 22°
2026-05-01 07:26 43.24408 8.89841 30307 ft 437 kts 23°
2026-05-01 07:27 43.29935 8.93340 30313 ft 437 kts 23°
2026-05-01 07:27 43.35461 8.96845 30309 ft 437 kts 23°
2026-05-01 07:28 43.40983 9.00356 30309 ft 437 kts 23°
2026-05-01 07:28 43.46507 9.03875 30314 ft 437 kts 23°
2026-05-01 07:29 43.52025 9.07397 30315 ft 437 kts 24°
2026-05-01 07:29 43.57508 9.10904 30322 ft 436 kts 24°
2026-05-01 07:30 43.62993 9.14420 30313 ft 434 kts 24°
2026-05-01 07:30 43.68451 9.17925 30320 ft 431 kts 24°
2026-05-01 07:31 43.73886 9.21422 30317 ft 430 kts 24°
2026-05-01 07:32 43.87419 9.30161 30320 ft 429 kts 25°
2026-05-01 07:33 43.95523 9.35416 30314 ft 428 kts 25°
2026-05-01 07:33 44.03609 9.40675 30311 ft 427 kts 25°
2026-05-01 07:34 44.10778 9.45350 30316 ft 428 kts 25°
2026-05-01 07:35 44.16155 9.48865 30322 ft 426 kts 26°
2026-05-01 07:35 44.21476 9.52352 30305 ft 414 kts 25°
2026-05-01 07:35 44.24026 9.54024 30305 ft 396 kts 26°
2026-05-01 07:36 44.26489 9.55640 29994 ft 388 kts 26°
2026-05-01 07:36 44.28801 9.57458 29607 ft 378 kts 38°
2026-05-01 07:36 44.30583 9.60119 29203 ft 374 kts 52°
2026-05-01 07:36 44.31906 9.63233 28755 ft 373 kts 62°
2026-05-01 07:37 44.33066 9.70264 27830 ft 373 kts 79°
2026-05-01 07:37 44.33299 9.73871 27352 ft 371 kts 80°
2026-05-01 07:37 44.33582 9.77438 26816 ft 368 kts 77°
2026-05-01 07:38 44.33985 9.80955 26331 ft 365 kts 75°
2026-05-01 07:38 44.34422 9.84435 25915 ft 362 kts 75°
2026-05-01 07:38 44.35293 9.91329 24976 ft 358 kts 75°
2026-05-01 07:39 44.35713 9.94747 24521 ft 355 kts 75°
2026-05-01 07:39 44.36124 9.98138 24074 ft 352 kts 75°
2026-05-01 07:39 44.36919 10.04823 23069 ft 345 kts 75°
2026-05-01 07:40 44.37290 10.08107 22681 ft 340 kts 76°
2026-05-01 07:40 44.37555 10.11374 21917 ft 350 kts 83°
2026-05-01 07:40 44.37518 10.14786 21402 ft 351 kts 86°
2026-05-01 07:40 44.37429 10.18199 20933 ft 350 kts 86°
2026-05-01 07:41 44.37333 10.21593 20494 ft 349 kts 86°
2026-05-01 07:41 44.37242 10.24980 20039 ft 348 kts 86°
2026-05-01 07:41 44.37079 10.31698 19149 ft 344 kts 86°
2026-05-01 07:42 44.37004 10.35030 18722 ft 342 kts 86°
2026-05-01 07:42 44.36933 10.38359 18215 ft 343 kts 86°
2026-05-01 07:42 44.36861 10.41675 17753 ft 340 kts 86°
2026-05-01 07:42 44.36789 10.44972 17326 ft 338 kts 86°
2026-05-01 07:43 44.36717 10.48249 16895 ft 337 kts 86°
2026-05-01 07:43 44.36646 10.51509 16461 ft 334 kts 86°
2026-05-01 07:43 44.36502 10.57961 15638 ft 330 kts 86°
2026-05-01 07:44 44.36357 10.64311 14828 ft 326 kts 86°
2026-05-01 07:44 44.36210 10.70614 13986 ft 324 kts 86°
2026-05-01 07:45 44.36136 10.73757 13518 ft 323 kts 86°
2026-05-01 07:45 44.36061 10.76887 13074 ft 321 kts 86°
2026-05-01 07:45 44.35984 10.79995 12668 ft 319 kts 87°
2026-05-01 07:45 44.35908 10.83075 12254 ft 316 kts 87°
2026-05-01 07:46 44.35831 10.86139 11859 ft 314 kts 87°
2026-05-01 07:46 44.35756 10.89181 11445 ft 313 kts 87°
2026-05-01 07:46 44.35602 10.95206 10873 ft 302 kts 87°
2026-05-01 07:47 44.35524 10.98096 10737 ft 293 kts 87°
2026-05-01 07:47 44.35449 11.00898 10607 ft 284 kts 87°
2026-05-01 07:47 44.35376 11.03619 10490 ft 277 kts 87°
2026-05-01 07:47 44.35304 11.06274 10354 ft 270 kts 87°
2026-05-01 07:48 44.35167 11.11499 9757 ft 267 kts 87°
2026-05-01 07:48 44.35097 11.14079 9470 ft 265 kts 87°
2026-05-01 07:48 44.35027 11.16644 9185 ft 263 kts 87°
2026-05-01 07:49 44.34961 11.19186 8931 ft 261 kts 87°
2026-05-01 07:49 44.34817 11.24242 8359 ft 259 kts 88°
2026-05-01 07:49 44.34746 11.26724 8113 ft 259 kts 88°
2026-05-01 07:50 44.34675 11.29233 7804 ft 257 kts 88°
2026-05-01 07:50 44.34529 11.34209 7282 ft 256 kts 87°
2026-05-01 07:50 44.34457 11.36692 7008 ft 255 kts 88°
2026-05-01 07:51 44.34383 11.39166 6718 ft 255 kts 88°
2026-05-01 07:51 44.34311 11.41697 6117 ft 265 kts 88°
2026-05-01 07:51 44.34235 11.44276 5715 ft 266 kts 89°
2026-05-01 07:52 44.34162 11.49347 5198 ft 253 kts 77°
2026-05-01 07:52 44.34833 11.51511 5064 ft 237 kts 55°
2026-05-01 07:52 44.35907 11.53159 4940 ft 223 kts 38°
2026-05-01 07:53 44.38498 11.55155 4768 ft 205 kts 29°
2026-05-01 07:53 44.39749 11.56030 4671 ft 197 kts 29°
2026-05-01 07:53 44.40962 11.56863 4513 ft 195 kts 24°
2026-05-01 07:53 44.42320 11.57029 4364 ft 205 kts 349°
2026-05-01 07:54 44.44407 11.54211 3980 ft 223 kts 300°
2026-05-01 07:55 44.46559 11.48393 3275 ft 224 kts 299°
2026-05-01 07:55 44.47928 11.44557 2839 ft 214 kts 299°
2026-05-01 07:56 44.49767 11.39410 1904 ft 177 kts 298°
2026-05-01 07:56 44.50797 11.36563 1422 ft 156 kts 300°
2026-05-01 07:57 44.51300 11.35262 1122 ft 147 kts 296°
2026-05-01 07:57 44.52192 11.32685 701 ft 148 kts 293°
2026-05-01 07:58 44.53078 11.30162 198 ft 136 kts 297°
2026-05-01 07:58 44.53734 11.28320 133 ft 38 kts 296°
2026-05-01 07:59 44.53755 11.28088 131 ft 0 kts 238°
2026-05-01 08:00 44.53601 11.28162 128 ft 13 kts 116°
2026-05-01 08:01 44.53483 11.28215 126 ft 6 kts 236°
2026-05-01 08:01 44.53453 11.28173 123 ft 6 kts 240°
2026-05-01 08:01 44.53440 11.28130 128 ft 0 kts 249°